Time,TemperatureF,DewpointF,PressureIn,WindDirection,WindDirectionDegrees,WindSpeedMPH,WindSpeedGustMPH,Humidity,HourlyPrecipIn,Conditions,Clouds,dailyrainin,SoftwareType,DateUTC
2013-04-29 00:04:00,57.2,18.7,29.94,NNE,22,0.0,-999.0,22,-99.99,,,0.00,Acu-Link.com,2013-04-29 07:04:00,
2013-04-29 00:19:00,57.0,19.6,29.92,NNE,22,0.0,-999.0,23,-99.99,,,0.00,Acu-Link.com,2013-04-29 07:19:00,
2013-04-29 00:34:00,57.4,18.9,29.92,ENE,67,0.0,-999.0,22,-99.99,,,0.00,Acu-Link.com,2013-04-29 07:34:00,
2013-04-29 00:50:00,56.5,20.2,29.92,NE,45,0.0,-999.0,24,-99.99,,,0.00,Acu-Link.com,2013-04-29 07:50:00,
2013-04-29 01:05:00,56.8,18.4,29.91,NE,45,0.0,-999.0,22,-99.99,,,0.00,Acu-Link.com,2013-04-29 08:05:00,
2013-04-29 01:20:00,56.1,20.8,29.93,NE,45,0.0,-999.0,25,-99.99,,,0.00,Acu-Link.com,2013-04-29 08:20:00,
2013-04-29 01:35:00,54.9,23.3,29.90,NNE,22,0.0,-999.0,29,-99.99,,,0.00,Acu-Link.com,2013-04-29 08:35:00,
2013-04-29 01:50:00,54.3,21.0,29.91,NNE,22,0.0,-999.0,27,-99.99,,,0.00,Acu-Link.com,2013-04-29 08:50:00,
2013-04-29 02:05:00,52.9,22.3,29.90,ENE,67,0.0,-999.0,30,-99.99,,,0.00,Acu-Link.com,2013-04-29 09:05:00,
2013-04-29 02:20:00,52.5,22.0,29.91,North,0,0.0,-999.0,30,-99.99,,,0.00,Acu-Link.com,2013-04-29 09:20:00,
2013-04-29 02:35:00,53.2,21.8,29.88,ENE,67,0.0,-999.0,29,-99.99,,,0.00,Acu-Link.com,2013-04-29 09:35:00,
2013-04-29 02:50:00,54.0,22.5,29.90,East,90,0.0,-999.0,29,-99.99,,,0.00,Acu-Link.com,2013-04-29 09:50:00,
2013-04-29 03:05:00,53.8,21.5,29.89,East,90,0.0,-999.0,28,-99.99,,,0.00,Acu-Link.com,2013-04-29 10:05:00,
2013-04-29 03:21:00,55.0,20.8,29.88,NNE,22,0.0,-999.0,26,-99.99,,,0.00,Acu-Link.com,2013-04-29 10:21:00,
2013-04-29 03:36:00,54.1,20.9,29.88,NNE,22,0.0,-999.0,27,-99.99,,,0.00,Acu-Link.com,2013-04-29 10:36:00,
2013-04-29 03:51:00,54.7,21.4,29.88,ESE,112,0.0,-999.0,27,-99.99,,,0.00,Acu-Link.com,2013-04-29 10:51:00,
2013-04-29 04:06:00,53.6,23.7,29.88,West,270,0.0,-999.0,31,-99.99,,,0.00,Acu-Link.com,2013-04-29 11:06:00,
2013-04-29 04:21:00,53.2,18.3,29.88,ESE,112,0.0,-999.0,25,-99.99,,,0.00,Acu-Link.com,2013-04-29 11:21:00,
2013-04-29 04:36:00,53.6,13.5,29.88,NNE,22,0.0,-999.0,20,-99.99,,,0.00,Acu-Link.com,2013-04-29 11:36:00,
2013-04-29 04:51:00,53.8,13.7,29.89,NE,45,0.0,-999.0,20,-99.99,,,0.00,Acu-Link.com,2013-04-29 11:51:00,
2013-04-29 05:06:00,55.0,11.0,29.88,North,0,0.0,-999.0,17,-99.99,,,0.00,Acu-Link.com,2013-04-29 12:06:00,
2013-04-29 05:21:00,55.8,10.3,29.87,NNE,22,0.0,-999.0,16,-99.99,,,0.00,Acu-Link.com,2013-04-29 12:21:00,
2013-04-29 05:37:00,53.2,17.4,29.87,ESE,112,0.0,-999.0,24,-99.99,,,0.00,Acu-Link.com,2013-04-29 12:37:00,
2013-04-29 05:52:00,52.0,14.4,29.88,NNE,22,0.0,-999.0,22,-99.99,,,0.00,Acu-Link.com,2013-04-29 12:52:00,
2013-04-29 06:07:00,51.4,15.8,29.88,North,0,0.0,-999.0,24,-99.99,,,0.00,Acu-Link.com,2013-04-29 13:07:00,
2013-04-29 06:22:00,51.6,16.0,29.88,ENE,67,0.0,-999.0,24,-99.99,,,0.00,Acu-Link.com,2013-04-29 13:22:00,
2013-04-29 06:37:00,51.8,18.9,29.88,NNE,22,0.0,-999.0,27,-99.99,,,0.00,Acu-Link.com,2013-04-29 13:37:00,
2013-04-29 06:52:00,52.5,18.6,29.88,NE,45,0.0,-999.0,26,-99.99,,,0.00,Acu-Link.com,2013-04-29 13:52:00,
2013-04-29 07:07:00,54.3,21.0,29.88,ENE,67,0.0,-999.0,27,-99.99,,,0.00,Acu-Link.com,2013-04-29 14:07:00,
2013-04-29 07:22:00,55.4,22.0,29.90,NE,45,0.0,-999.0,27,-99.99,,,0.00,Acu-Link.com,2013-04-29 14:22:00,
2013-04-29 07:37:00,57.2,26.1,29.90,North,0,0.0,-999.0,30,-99.99,,,0.00,Acu-Link.com,2013-04-29 14:37:00,
2013-04-29 07:53:00,59.0,28.4,29.89,West,270,0.0,-999.0,31,-99.99,,,0.00,Acu-Link.com,2013-04-29 14:53:00,
2013-04-29 08:08:00,59.5,29.6,29.89,NNW,337,0.0,-999.0,32,-99.99,,,0.00,Acu-Link.com,2013-04-29 15:08:00,
2013-04-29 08:23:00,61.3,28.8,29.89,SSE,157,0.0,-999.0,29,-99.99,,,0.00,Acu-Link.com,2013-04-29 15:23:00,
2013-04-29 08:38:00,65.1,28.4,29.88,West,270,0.0,-999.0,25,-99.99,,,0.00,Acu-Link.com,2013-04-29 15:38:00,
2013-04-29 08:53:00,68.0,25.4,29.89,SW,225,0.0,-999.0,20,-99.99,,,0.00,Acu-Link.com,2013-04-29 15:53:00,
2013-04-29 09:08:00,69.4,16.4,29.89,West,270,1.7,-999.0,13,-99.99,,,0.00,Acu-Link.com,2013-04-29 16:08:00,
2013-04-29 09:23:00,70.5,11.3,29.89,SW,225,2.2,-999.0,10,-99.99,,,0.00,Acu-Link.com,2013-04-29 16:23:00,
2013-04-29 09:38:00,72.5,7.9,29.90,SW,225,2.2,-999.0,8,-99.99,,,0.00,Acu-Link.com,2013-04-29 16:38:00,
2013-04-29 09:53:00,75.9,-18.4,29.90,NW,315,2.7,-999.0,2,-99.99,,,0.00,Acu-Link.com,2013-04-29 16:53:00,
2013-04-29 10:09:00,78.1,-8.9,29.89,SE,135,2.2,-999.0,3,-99.99,,,0.00,Acu-Link.com,2013-04-29 17:09:00,
2013-04-29 10:24:00,82.9,-27.1,29.91,West,270,0.0,-999.0,0,-99.99,,,0.00,Acu-Link.com,2013-04-29 17:24:00,
2013-04-29 10:39:00,81.9,-27.7,29.90,South,180,4.7,-999.0,0,-99.99,,,0.00,Acu-Link.com,2013-04-29 17:39:00,
2013-04-29 10:54:00,82.4,-27.4,29.90,SSW,202,3.7,-999.0,0,-99.99,,,0.00,Acu-Link.com,2013-04-29 17:54:00,
2013-04-29 11:09:00,83.8,-26.6,29.90,West,270,5.8,-999.0,0,-99.99,,,0.00,Acu-Link.com,2013-04-29 18:09:00,
2013-04-29 11:24:00,85.6,-25.5,29.90,SW,225,2.2,-999.0,1,-99.99,,,0.00,Acu-Link.com,2013-04-29 18:24:00,
2013-04-29 11:39:00,86.4,-25.0,29.90,South,180,3.2,-999.0,0,-99.99,,,0.00,Acu-Link.com,2013-04-29 18:39:00,
2013-04-29 11:54:00,86.2,-25.2,29.90,South,180,2.2,-999.0,0,-99.99,,,0.00,Acu-Link.com,2013-04-29 18:54:00,
2013-04-29 12:09:00,87.3,-24.5,29.89,NNW,337,2.7,-999.0,0,-99.99,,,0.00,Acu-Link.com,2013-04-29 19:09:00,
2013-04-29 12:25:00,88.5,-23.8,29.89,West,270,4.7,-999.0,0,-99.99,,,0.00,Acu-Link.com,2013-04-29 19:25:00,
2013-04-29 12:40:00,88.9,-23.6,29.89,WSW,247,1.7,-999.0,0,-99.99,,,0.00,Acu-Link.com,2013-04-29 19:40:00,
2013-04-29 12:55:00,87.6,-24.3,29.88,South,180,3.7,-999.0,0,-99.99,,,0.00,Acu-Link.com,2013-04-29 19:55:00,
2013-04-29 13:10:00,85.6,-12.2,29.88,SW,225,1.1,-999.0,2,-99.99,,,0.00,Acu-Link.com,2013-04-29 20:10:00,
2013-04-29 13:25:00,88.0,-24.1,29.88,South,180,1.7,-999.0,0,-99.99,,,0.00,Acu-Link.com,2013-04-29 20:25:00,
2013-04-29 13:40:00,84.9,-25.9,29.87,SW,225,4.7,-999.0,0,-99.99,,,0.00,Acu-Link.com,2013-04-29 20:40:00,
2013-04-29 13:55:00,86.7,-24.9,29.87,WNW,292,4.2,-999.0,0,-99.99,,,0.00,Acu-Link.com,2013-04-29 20:55:00,
2013-04-29 14:10:00,87.1,-24.6,29.86,South,180,3.2,-999.0,0,-99.99,,,0.00,Acu-Link.com,2013-04-29 21:10:00,
2013-04-29 14:25:00,87.6,-24.3,29.87,SW,225,3.2,-999.0,0,-99.99,,,0.00,Acu-Link.com,2013-04-29 21:25:00,
2013-04-29 14:40:00,86.9,-24.8,29.88,WSW,247,7.3,-999.0,0,-99.99,,,0.00,Acu-Link.com,2013-04-29 21:40:00,
2013-04-29 14:56:00,87.4,-24.5,29.85,WSW,247,4.7,-999.0,1,-99.99,,,0.00,Acu-Link.com,2013-04-29 21:56:00,
2013-04-29 15:11:00,88.0,-24.1,29.85,WSW,247,3.2,-999.0,1,-99.99,,,0.00,Acu-Link.com,2013-04-29 22:11:00,
2013-04-29 15:26:00,85.8,-3.8,29.84,West,270,3.7,-999.0,3,-99.99,,,0.00,Acu-Link.com,2013-04-29 22:26:00,
2013-04-29 15:41:00,83.5,0.7,29.85,SSW,202,1.1,-999.0,4,-99.99,,,0.00,Acu-Link.com,2013-04-29 22:41:00,
2013-04-29 15:56:00,85.3,6.8,29.82,SE,135,2.7,-999.0,5,-99.99,,,0.00,Acu-Link.com,2013-04-29 22:56:00,
2013-04-29 16:11:00,82.9,9.1,29.82,SSW,202,2.7,-999.0,6,-99.99,,,0.00,Acu-Link.com,2013-04-29 23:11:00,
2013-04-29 16:26:00,80.6,10.9,29.81,West,270,3.7,-999.0,7,-99.99,,,0.00,Acu-Link.com,2013-04-29 23:26:00,
2013-04-29 16:41:00,79.9,10.4,29.81,SE,135,3.2,-999.0,7,-99.99,,,0.00,Acu-Link.com,2013-04-29 23:41:00,
2013-04-29 16:56:00,78.1,25.0,29.81,WNW,292,5.8,-999.0,14,-99.99,,,0.00,Acu-Link.com,2013-04-29 23:56:00,
2013-04-29 17:12:00,75.4,32.7,29.80,NW,315,4.7,-999.0,21,-99.99,,,0.00,Acu-Link.com,2013-04-30 00:12:00,
2013-04-29 17:27:00,74.8,32.2,29.80,WNW,292,3.2,-999.0,21,-99.99,,,0.00,Acu-Link.com,2013-04-30 00:27:00,
2013-04-29 17:42:00,75.0,31.2,29.79,NW,315,3.2,-999.0,20,-99.99,,,0.00,Acu-Link.com,2013-04-30 00:42:00,
2013-04-29 17:57:00,73.8,33.7,29.79,South,180,4.7,-999.0,23,-99.99,,,0.00,Acu-Link.com,2013-04-30 00:57:00,
2013-04-29 18:12:00,72.1,33.3,29.78,SW,225,6.3,-999.0,24,-99.99,,,0.00,Acu-Link.com,2013-04-30 01:12:00,
2013-04-29 18:27:00,70.5,38.4,29.77,West,270,2.7,-999.0,31,-99.99,,,0.00,Acu-Link.com,2013-04-30 01:27:00,
2013-04-29 18:42:00,68.4,38.9,29.77,SSW,202,3.7,-999.0,34,-99.99,,,0.00,Acu-Link.com,2013-04-30 01:42:00,
2013-04-29 18:57:00,66.2,38.5,29.78,SSW,202,0.0,-999.0,36,-99.99,,,0.00,Acu-Link.com,2013-04-30 01:57:00,
2013-04-29 19:12:00,64.9,38.7,29.77,WNW,292,3.7,-999.0,38,-99.99,,,0.00,Acu-Link.com,2013-04-30 02:12:00,
2013-04-29 19:28:00,63.3,38.6,29.80,SSW,202,2.2,-999.0,40,-99.99,,,0.00,Acu-Link.com,2013-04-30 02:28:00,
2013-04-29 19:43:00,62.2,36.3,29.79,SSW,202,2.7,-999.0,38,-99.99,,,0.00,Acu-Link.com,2013-04-30 02:43:00,
2013-04-29 19:58:00,61.9,32.5,29.78,NW,315,3.7,-999.0,33,-99.99,,,0.00,Acu-Link.com,2013-04-30 02:58:00,
2013-04-29 20:13:00,61.5,31.4,29.78,NNE,22,4.2,-999.0,32,-99.99,,,0.00,Acu-Link.com,2013-04-30 03:13:00,
2013-04-29 20:28:00,61.3,27.0,29.79,SW,225,2.2,-999.0,27,-99.99,,,0.00,Acu-Link.com,2013-04-30 03:28:00,
2013-04-29 20:43:00,61.0,24.9,29.79,ESE,112,2.7,-999.0,25,-99.99,,,0.00,Acu-Link.com,2013-04-30 03:43:00,
2013-04-29 20:58:00,61.0,32.4,29.79,WNW,292,3.7,-999.0,34,-99.99,,,0.00,Acu-Link.com,2013-04-30 03:58:00,
2013-04-29 21:14:00,60.6,24.6,29.80,ESE,112,3.2,-999.0,25,-99.99,,,0.00,Acu-Link.com,2013-04-30 04:14:00,
2013-04-29 21:29:00,60.6,22.6,29.80,North,0,2.7,-999.0,23,-99.99,,,0.00,Acu-Link.com,2013-04-30 04:29:00,
2013-04-29 21:44:00,60.3,21.3,29.80,WNW,292,0.0,-999.0,22,-99.99,,,0.00,Acu-Link.com,2013-04-30 04:44:00,
2013-04-29 21:59:00,60.4,23.5,29.79,SW,225,2.2,-999.0,24,-99.99,,,0.00,Acu-Link.com,2013-04-30 04:59:00,
2013-04-29 22:14:00,59.9,24.0,29.80,SSW,202,0.0,-999.0,25,-99.99,,,0.00,Acu-Link.com,2013-04-30 05:14:00,
2013-04-29 22:29:00,59.4,24.5,29.80,WNW,292,2.2,-999.0,26,-99.99,,,0.00,Acu-Link.com,2013-04-30 05:29:00,
2013-04-29 22:44:00,59.2,21.4,29.80,WSW,247,1.7,-999.0,23,-99.99,,,0.00,Acu-Link.com,2013-04-30 05:44:00,
2013-04-29 22:59:00,59.2,22.4,29.80,WNW,292,0.0,-999.0,24,-99.99,,,0.00,Acu-Link.com,2013-04-30 05:59:00,
2013-04-29 23:15:00,58.1,32.6,29.79,West,270,3.7,-999.0,38,-99.99,,,0.00,Acu-Link.com,2013-04-30 06:15:00,
2013-04-29 23:30:00,56.8,31.5,29.79,North,0,0.0,-999.0,38,-99.99,,,0.00,Acu-Link.com,2013-04-30 06:30:00,
2013-04-29 23:45:00,56.8,29.4,29.79,West,270,0.0,-999.0,35,-99.99,,,0.00,Acu-Link.com,2013-04-30 06:45:00,